sat.trackr.live / text

‹ back to catalog

STARLINK-3873

NORAD 52467 · 2022-049S

PAYLOAD ACTIVE UNKNOWN

§ Identity

Operator
Country
US
Launch date
2022-05-06
Launch site
AFETR
Launch vehicle
Mass (kg)
RCS (m²)

Purposes: comms

External: N2YO · Heavens-Above · Gunter

§ Orbital elements

Epoch: 2026-09-19T16:48:53.319168Z

Period
93.85 min
Inclination
53.1586°
Eccentricity
0.0001467
Mean motion
15.34367867 rev/d
Perigee alt
461.8 km
Apogee alt
463.8 km
Semi-major
6,840.9 km
B*
1.4570e-4
RAAN
257.1879°
Arg perigee
98.0028°
Mean anomaly
262.1141°
Rev number
24,168

§ Raw data

STARLINK-38731 52467U 22049S   26262.70061712  .00004545  00000+0  14570-3 0  99902 52467  53.1586 257.1879 0001467  98.0028 262.1141 15.34367867241686

JSON: /api/v1/satellites/52467 · /tle

For live sub-satellite position, see the globe view (requires WebGL).

§ Visibility from observer

Set your observer location to see the next 7 days of passes ≥ 10°. The values pass through the URL so the page stays shareable.

No JS? Fill the form by hand. The geolocation button needs JavaScript.